Location: Bois de la Silve
(44.4667°N, 6.7833°E)
Time: 08:52:17
(UTC+00:00)

Gbstr 26 Del rocket - Pass Details

Date: 14 July 2020
Orbit: 493 x 1264 km, 51.8° (Epoch: 14 August)

Event Time Altitude Azimuth Distance (km) Brightness Sun altitude
Rises 01:38:08 0° 301° (WNW) 2,664 6.3 -18.5°
Reaches altitude 10° 01:40:13 10° 305° (NW) 1,831 5.5 -18.3°
Maximum altitude 01:44:17 58° 26° (NNE) 720 3.7 -18.0°
Drops below altitude 10° 01:49:09 10° 105° (ESE) 2,187 6.1 -17.5°
Sets 01:51:50 0° 109° (ESE) 3,241 6.9 -17.3°
